Total_Precipitation_Accumulation
0.87 0.95 1.04 1.14 1.31 1.37 1.35 1.39 1.35 1.32 1.37 1.40 1.42 1.45 1.43 1.39 1.42 1.50 1.43 1.54 1.61 1.72 1.72 1.65 1.65 1.79 1.82 1.71 1.75 1.79 1.96 2.15 2.09 1.97 2.11 2.15 2.04 1.84 1.80 1.80 1.73 1.66 1.47
0.84 0.94 1.04 1.12 1.21 1.31 1.27 1.35 1.46 1.45 1.47 1.46 1.47 1.53 1.46 1.48 1.53 1.44 1.45 1.52 1.59 1.63 1.72 1.86 1.87 1.90 1.86 1.77 1.83 1.86 2.01 2.26 2.27 2.14 2.11 2.13 2.07 1.98 1.87 1.71 1.52 1.47 1.46
0.93 1.01 1.05 1.03 1.11 1.26 1.30 1.33 1.41 1.50 1.56 1.52 1.46 1.48 1.53 1.60 1.60 1.44 1.40 1.39 1.36 1.34 1.48 1.74 1.98 2.23 2.12 1.96 1.90 1.89 1.97 2.08 2.26 2.14 2.07 2.22 2.19 2.08 1.92 1.69 1.52 1.45 1.26
0.86 0.92 1.01 1.05 1.19 1.33 1.38 1.39 1.42 1.43 1.47 1.53 1.55 1.53 1.51 1.50 1.48 1.47 1.48 1.43 1.35 1.27 1.31 1.42 1.57 1.79 1.99 2.10 1.95 1.82 1.88 2.01 2.16 2.19 2.27 2.52 2.58 2.41 2.11 1.86 1.73 1.58 1.43
1.07 1.18 1.22 1.22 1.28 1.41 1.50 1.48 1.53 1.55 1.52 1.65 1.72 1.68 1.62 1.57 1.48 1.57 1.67 1.54 1.53 1.44 1.40 1.38 1.31 1.43 1.57 1.74 1.75 1.92 1.97 1.97 2.09 2.20 2.40 2.82 2.85 2.61 2.17 1.94 1.85 1.79 1.60
1.48 1.62 1.59 1.58 1.61 1.62 1.63 1.63 1.70 1.77 1.93 1.97 1.89 1.83 1.79 1.60 1.69 1.69 1.66 1.65 1.71 1.67 1.61 1.55 1.44 1.35 1.38 1.47 1.53 1.66 1.82 1.88 1.95 2.07 2.26 2.57 2.71 2.58 2.31 2.06 1.85 1.73 1.59
1.51 1.63 1.66 1.66 1.69 1.79 1.82 1.84 1.89 2.00 2.07 2.11 2.15 2.10 2.03 2.05 1.97 1.68 1.62 1.62 1.70 1.72 1.80 1.83 1.55 1.33 1.42 1.39 1.48 1.50 1.49 1.58 1.69 1.81 2.02 2.22 2.52 2.62 2.48 2.10 1.92 1.76 1.52
1.63 1.79 1.86 1.83 1.84 1.89 1.90 1.85 1.87 1.99 2.02 1.99 1.94 1.87 1.85 1.83 1.78 1.54 1.44 1.36 1.48 1.55 1.56 1.56 1.55 1.42 1.33 1.34 1.36 1.29 1.23 1.25 1.31 1.35 1.48 1.75 2.04 2.41 2.59 2.37 2.18 1.97 1.71
1.75 1.94 2.05 2.12 2.20 2.13 2.03 2.02 2.02 2.02 1.89 1.79 1.70 1.67 1.65 1.68 1.69 1.50 1.38 1.26 1.30 1.32 1.33 1.35 1.39 1.30 1.31 1.20 1.13 1.13 1.11 1.06 1.05 1.07 1.12 1.29 1.55 1.88 2.23 2.37 2.10 1.77 1.60
1.71 1.82 1.98 2.09 2.26 2.36 2.28 2.27 2.21 2.11 2.00 1.91 1.82 1.80 1.77 1.81 1.90 1.66 1.51 1.37 1.42 1.43 1.50 1.47 1.42 1.29 1.24 1.09 1.00 1.02 0.98 0.91 0.93 0.91 0.88 0.94 1.06 1.33 1.71 1.86 1.93 1.70 1.46
1.62 1.61 1.76 1.96 2.14 2.27 2.36 2.33 2.34 2.26 2.14 1.94 1.79 1.76 1.77 1.85 1.94 1.78 1.60 1.38 1.39 1.51 1.58 1.62 1.57 1.44 1.16 1.01 0.89 0.85 0.84 0.88 0.93 0.92 0.89 0.91 1.04 1.21 1.38 1.61 1.77 1.71 1.47
1.67 1.76 1.86 2.02 2.10 2.09 2.14 2.21 2.29 2.24 2.19 2.08 1.84 1.62 1.55 1.54 1.55 1.54 1.35 1.22 1.23 1.33 1.47 1.59 1.60 1.48 1.24 1.07 0.92 0.83 0.80 0.76 0.79 0.85 0.85 0.83 0.87 0.98 1.16 1.41 1.61 1.61 1.47
1.86 1.91 1.96 2.04 2.10 2.14 2.12 2.09 2.09 2.02 1.89 1.81 1.69 1.59 1.52 1.47 1.40 1.28 1.08 0.97 0.99 1.06 1.20 1.48 1.58 1.46 1.30 1.10 0.99 0.91 0.79 0.69 0.72 0.73 0.67 0.64 0.68 0.80 1.00 1.32 1.66 1.80 1.71
1.87 1.81 1.75 1.74 1.76 1.80 1.85 1.87 1.89 1.85 1.79 1.70 1.59 1.55 1.48 1.42 1.29 1.21 1.13 1.02 1.01 1.04 1.07 1.25 1.36 1.34 1.20 1.11 1.01 0.89 0.77 0.73 0.70 0.68 0.67 0.71 0.79 0.88 0.99 1.14 1.47 1.74 1.79
1.87 1.85 1.85 1.81 1.75 1.75 1.80 1.86 1.75 1.71 1.72 1.61 1.50 1.55 1.52 1.37 1.32 1.29 1.23 1.17 1.12 1.16 1.14 1.18 1.28 1.35 1.34 1.28 1.24 1.13 1.02 0.94 0.86 0.82 0.87 0.87 0.92 0.97 1.01 1.11 1.34 1.55 1.55
1.87 1.79 1.80 1.85 1.87 1.85 1.83 1.88 1.91 1.71 1.66 1.54 1.46 1.41 1.38 1.29 1.20 1.07 1.05 1.03 0.95 0.92 0.85 0.94 1.12 1.29 1.42 1.45 1.48 1.40 1.28 1.17 1.07 1.04 1.05 1.03 1.02 1.06 1.08 1.11 1.26 1.44 1.47
1.84 1.84 1.87 1.87 1.90 1.85 1.73 1.67 1.71 1.63 1.46 1.35 1.31 1.23 1.16 1.09 0.97 0.90 0.88 0.87 0.80 0.72 0.67 0.81 0.97 1.11 1.29 1.43 1.47 1.42 1.34 1.32 1.33 1.29 1.26 1.22 1.16 1.16 1.19 1.18 1.20 1.33 1.40
1.75 1.81 1.87 1.88 1.85 1.80 1.70 1.62 1.56 1.54 1.42 1.27 1.17 1.10 1.04 0.98 0.98 0.97 0.93 0.85 0.76 0.71 0.67 0.83 0.98 1.12 1.27 1.43 1.46 1.42 1.42 1.43 1.42 1.37 1.38 1.39 1.37 1.32 1.31 1.28 1.23 1.22 1.31
1.46 1.44 1.46 1.50 1.52 1.48 1.40 1.33 1.27 1.23 1.22 1.21 1.09 0.94 0.94 0.91 0.99 1.08 0.97 0.85 0.85 0.84 0.83 0.88 0.95 1.06 1.21 1.36 1.47 1.50 1.51 1.49 1.46 1.48 1.47 1.47 1.50 1.45 1.35 1.33 1.37 1.37 1.32
1.19 1.27 1.19 1.12 1.13 1.15 1.11 1.05 1.00 1.02 1.07 1.14 1.09 0.92 0.85 0.85 0.98 1.12 1.00 0.98 1.00 0.95 0.93 0.94 0.93 1.00 1.16 1.30 1.42 1.52 1.56 1.51 1.46 1.47 1.47 1.47 1.47 1.47 1.39 1.38 1.47 1.46 1.33
0.97 0.93 0.93 0.83 0.83 0.92 0.97 0.94 0.91 0.95 1.02 1.09 1.02 0.87 0.79 0.80 1.04 1.13 1.06 1.03 0.99 0.95 0.95 0.93 0.89 0.95 1.12 1.28 1.37 1.47 1.56 1.54 1.47 1.44 1.50 1.54 1.46 1.42 1.38 1.40 1.44 1.48 1.43
0.68 0.67 0.64 0.61 0.66 0.72 0.75 0.82 0.89 0.95 1.00 1.03 0.95 0.83 0.82 0.85 1.03 1.07 1.00 0.99 0.99 0.96 0.94 0.93 0.90 0.92 1.04 1.18 1.25 1.34 1.46 1.47 1.42 1.41 1.47 1.56 1.52 1.42 1.40 1.40 1.41 1.48 1.52
0.58 0.60 0.60 0.58 0.63 0.63 0.66 0.74 0.89 0.98 1.00 1.00 0.96 0.92 0.91 0.94 0.99 1.01 0.98 0.94 0.92 0.94 0.95 0.98 0.98 0.98 1.03 1.13 1.18 1.25 1.39 1.39 1.35 1.36 1.42 1.46 1.45 1.42 1.41 1.38 1.36 1.43 1.48
0.54 0.58 0.61 0.59 0.57 0.60 0.65 0.68 0.73 0.78 0.85 0.90 0.91 0.90 0.87 0.88 0.91 0.91 0.90 0.89 0.90 0.91 0.94 1.00 1.03 1.03 1.06 1.11 1.12 1.13 1.22 1.23 1.16 1.15 1.20 1.29 1.32 1.34 1.35 1.32 1.29 1.31 1.37
0.54 0.59 0.63 0.68 0.66 0.65 0.67 0.68 0.71 0.72 0.75 0.78 0.83 0.88 0.90 0.87 0.89 0.92 0.94 0.95 0.93 0.93 0.90 0.91 0.95 0.98 0.95 0.91 0.93 0.95 1.04 1.00 0.94 0.93 1.03 1.15 1.19 1.21 1.22 1.22 1.22 1.27 1.35
0.62 0.64 0.69 0.74 0.75 0.74 0.76 0.80 0.83 0.83 0.83 0.80 0.83 0.88 0.94 0.98 0.98 0.99 1.00 0.98 0.96 0.95 0.91 0.92 0.94 0.89 0.87 0.85 0.81 0.84 0.83 0.77 0.78 0.82 0.85 0.94 1.03 1.06 1.11 1.14 1.13 1.19 1.25